Retour au catalogue

NOAA 16 DEB

ActifSSO
NORAD 42333·DEBRIS·🇺🇸 United States

Lancé Sep 21, 2000 depuis Vandenberg Space Force Base

Loading…

Prochains Passages (prochaines 24 heures)

TLE

FraisSource: Space-Track

Époque: Sep 14, 2026, 14:05 UTC

1 42333U 00055PZ  26257.58704697  .00003177  00000-0  12602-2 0  9994
2 42333  98.9763  28.9775 0013097 325.7297  34.3037 14.29519090542777

Suivez NOAA 16 DEB en temps réel avec AllMySat

Download on the App Store